• Processing (Info)

  • MPEC 2000-S48 : 2000 SL10

    The following Minor Planet Electronic Circular may be linked-to from your own Web pages, but must not otherwise be redistributed electronically.

    A form allowing access to any MPEC is at the bottom of this page.


    Read MPEC 2000-S47 Read MPEC 2000-S49


    M.P.E.C. 2000-S48                                Issued 2000 Sept. 25, 18:36 UT
    
         The Minor Planet Electronic Circulars contain information on unusual
             minor planets and routine data on comets.  They are published
       on behalf of Commission 20 of the International Astronomical Union by the
              Minor Planet Center, Smithsonian Astrophysical Observatory,
                              Cambridge, MA 02138, U.S.A.
    
                 Prepared using the Tamkin Foundation Computer Network
    
                                  MPC@CFA.HARVARD.EDU
              URL http://cfa-www.harvard.edu/iau/mpc.html  ISSN 1523-6714
    
                                       2000 SL10
    
    Observations:
         K00S10L* C2000 09 23.18801 22 33 39.80 -00 18 00.1          17.9        704
         K00S10L  C2000 09 23.20264 22 33 44.00 -00 18 07.5          17.9        704
         K00S10L  C2000 09 23.21725 22 33 48.11 -00 18 15.2          18.0        704
         K00S10L  C2000 09 23.23185 22 33 52.23 -00 18 23.3          18.0        704
         K00S10L  C2000 09 23.24646 22 33 56.39 -00 18 31.1          17.8        704
         K00S10L  C2000 09 23.98660 22 37 38.42 -00 24 58.7                      557
         K00S10L  C2000 09 23.98782 22 37 38.77 -00 24 58.8          18.4 V      557
         K00S10L  C2000 09 23.98906 22 37 39.12 -00 25 00.5                      557
         K00S10L  C2000 09 24.07999 22 38 07.16 -00 24 08.1          18.8 V      860
         K00S10L  C2000 09 24.08360 22 38 07.87 -00 24 09.1          18.4 V      860
         K00S10L  C2000 09 24.08722 22 38 08.85 -00 24 11.4          18.3 V      860
         K00S10L 4C2000 09 24.26084 22 38 59.43 -00 26 53.5                      673
         K00S10L 4C2000 09 24.26469 22 39 00.25 -00 26 54.7                      673
         K00S10L 4C2000 09 24.26912 22 39 01.43 -00 26 56.8                      673
         K00S10L  C2000 09 24.88456 22 41 52.04 -00 31 50.1                      557
         K00S10L  C2000 09 24.89567 22 41 54.77 -00 31 54.8                      557
         K00S10L  C2000 09 24.89884 22 41 55.65 -00 31 56.4                      557
         K00S10L  C2000 09 25.04444 22 42 34.92 -00 31 31.1          19.6 V      859
         K00S10L  C2000 09 25.04749 22 42 35.64 -00 31 31.8          18.9 V      859
         K00S10L  C2000 09 25.05356 22 42 37.07 -00 31 36.3          19.7 V      859
    
    Observer details:
    557 Ondrejov.  Observer L. Sarounova.  0.65-m f/3.6 reflector + CCD.
    673 Table Mountain Observatory, Wrightwood.  Observers C. Ramirez, L. Kuang,
        M. Anderson.  Measurer M. Hicks.  0.6-m reflector + CCD.
    704 Lincoln Laboratory ETS, New Mexico.  Observers M. Blythe, F. Shelly,
        M. Bezpalko, M. Elowitz, R. Huber, L. Manguso.  Measurers J. Stuart,
        R. Sayer, J. B. Evans, H. Viggh.  1.0-m f/2.15 reflector + CCD.
    859 Wykrota Observatory-CEAMIG.  Observers C. Jacques, J. Amancio, L. Duczmal,
        G. Nappi.  0.3-m f/3.3 Schmidt-Cassegrain + CCD.
    860 Valinhos.  Observer P. R. Holvorcem.  0.36-m f/3.6 Schmidt-Cassegrain
        + CCD.
    
    Orbital elements:
    2000 SL10
    Epoch 2000 Sept. 13.0 TT = JDT 2451800.5                Spahr
    M  31.45981              (2000.0)            P               Q
    n   0.61021240     Peri.   78.87261     +0.30107825     +0.95351857
    a   1.3766241      Node   208.65925     -0.88470646     +0.27444290
    e   0.3397162      Incl.    1.48382     -0.35587410     +0.12443248
    P   1.62           H   22.4           G   0.15
    From 20 observations 2000 Sept. 23-25.
    
    Ephemeris:
    2000 SL10                a,e,i = 1.38, 0.34, 1                   q = 0.9090
    Date    TT    R. A. (2000) Decl.     Delta      r     Elong.  Phase     V
    2000 09 23    22 32.64   -00 15.5    0.099    1.096   157.9    20.1    18.6
    2000 10 03    23 08.87   -01 09.4    0.157    1.147   157.4    19.6    19.7
    2000 10 13    23 28.92   -01 18.4    0.223    1.200   152.3    22.7    20.6
    2000 10 23    23 43.75   -00 59.9    0.298    1.253   146.0    26.4    21.5
    2000 11 02    23 57.06   -00 20.5    0.381    1.305   139.3    29.7    22.2
    
    Timothy B. Spahr             (C) Copyright 2000 MPC           M.P.E.C. 2000-S48
    

    Read MPEC 2000-S47 Read MPEC 2000-S49


    MPEC number:

    Enter an MPEC number in one of the following forms:

    • 1997-B01 (the full form)
    • J97B01 (the packed version of the full form)
    • B01 (the abbreviated form)